Regional Weather Roundup
Issued by NWS Little Rock, AR

Home | Current Version | Previous Version | Text Only | Print | Product List | Glossary Off
Versions: 1 2 3 4 5 6 7 8 9 10 11 12 13 14 15 16 17 18 19 20 21 22 23 24 25 26 27 28 29 30 31 32 33 34 35 36 37 38 39 40 41 42 43 44 45 46 47 48 49 50

000
ASUS44 KLZK 221205
RWRLZK

WEATHER ROUNDUP FOR ARKANSAS
NATIONAL WEATHER SERVICE LITTLE ROCK AR
600 AM CST SUN JAN 22 2017

NOTE: "FAIR" INDICATES FEW OR NO CLOUDS BELOW 12,000 FEET WITH NO
SIGNIFICANT WEATHER AND/OR OBSTRUCTIONS TO VISIBILITY.

ARZ001-003-010-029-221300-
NORTHWEST ARKANSAS

CITY           SKY/WX    TMP DP  RH WIND       PRES   REMARKS
FAYETTEVILLE   HVY RAIN  50  50 100 NW3       29.36S FOG
6HR MIN TEMP:  46; 6HR MAX TEMP:  51; 6HR PCP:  0.11;

FORT SMITH     LGT RAIN  52  51  97 CALM      29.35F VSB 1
6HR MIN TEMP:  52; 6HR MAX TEMP:  56; 6HR PCP:  0.02;

HARRISON       CLOUDY    50  50 100 E5        29.38R
6HR MIN TEMP:  48; 6HR MAX TEMP:  52; 6HR PCP:  0.01;

BENTONVILLE    MOCLDY   N/A N/A N/A NE6       29.37S
                                      6HR PCP:  0.14;

ROGERS         LGT RAIN  49  49 100 NE7       29.38R
6HR MIN TEMP:  49; 6HR MAX TEMP:  52; 6HR PCP:  0.08;

SILOAM SPGS    CLOUDY    52  48  87 CALM      29.37R
6HR MIN TEMP:  48; 6HR MAX TEMP:  54; 6HR PCP:  0.56;

HIGHFILL       LGT RAIN  51  50  96 N6        29.36S
6HR MIN TEMP:  49; 6HR MAX TEMP:  53; 6HR PCP:  0.09;

SPRINGDALE     LGT RAIN  50  50 100 E7        29.37  FOG
$$

ARZ004-005-016-221300-
NORTH CENTRAL ARKANSAS

CITY           SKY/WX    TMP DP  RH WIND       PRES   REMARKS
BATESVILLE     PTCLDY    54  52  94 CALM      29.37F
6HR MIN TEMP:  54; 6HR MAX TEMP:  57; 6HR PCP:  0.18;

FLIPPIN        CLOUDY    55  48  76 E5        29.36S
6HR MIN TEMP:  54; 6HR MAX TEMP:  57;

MTN HOME       LGT RAIN  54  53  97 S6        29.38F
6HR MIN TEMP:  53; 6HR MAX TEMP:  57; 6HR PCP: TRACE;

$$

ARZ040-041-221300-
WEST CENTRAL ARKANSAS

CITY           SKY/WX    TMP DP  RH WIND       PRES   REMARKS
MENA           CLOUDY    54  54 100 W8        29.37F
MOUNT IDA      CLOUDY    56  53  90 CALM      29.33S
6HR MIN TEMP:  51; 6HR MAX TEMP:  56; 6HR PCP: TRACE;

$$

ARZ009-017-025-026-028-221300-
NORTHEAST ARKANSAS

CITY           SKY/WX    TMP DP  RH WIND       PRES   REMARKS
CORNING        FAIR      54  54 100 NE8       29.42F
JONESBORO      CLOUDY    52  51  97 E9        29.39F
6HR MIN TEMP:  52; 6HR MAX TEMP:  58; 6HR PCP:  0.02;

NEWPORT        PTCLDY    52  52 100 NE10      29.35F
6HR MIN TEMP:  52; 6HR MAX TEMP:  57;

WALNUT RIDGE   CLOUDY    54  48  82 S7        29.38F
6HR MIN TEMP:  54; 6HR MAX TEMP:  57;

BLYTHEVILLE    CLOUDY    55  53  93 E9        29.43S
6HR MIN TEMP:  54; 6HR MAX TEMP:  60; 6HR PCP: TRACE;

$$

ARZ022-023-033-042-044-221300-
CENTRAL ARKANSAS

CITY           SKY/WX    TMP DP  RH WIND       PRES   REMARKS
LITTLE ROCK    CLOUDY    52  52 100 SE7       29.38R
6HR MIN TEMP:  48; 6HR MAX TEMP:  56;

N LITTLE ROCK    N/A     53  51  95 S6        29.38S
6HR MIN TEMP:  53; 6HR MAX TEMP:  56;

JACKSONVILLE   MOCLDY    54  54 100 E7        29.37R FOG
6HR MIN TEMP:  50; 6HR MAX TEMP:  58; 6HR PCP:  0.01;

SEARCY         PTCLDY    52  52 100 SW6       29.42R
6HR MIN TEMP:  50; 6HR MAX TEMP:  59; 6HR PCP:  0.02;

HOT SPRINGS    CLOUDY    54  54 100 NE3       29.37S
6HR MIN TEMP:  51; 6HR MAX TEMP:  56; 6HR PCP: TRACE;

RUSSELLVILLE   CLOUDY    52  52 100 SW3       29.34F THUNDER FOG
6HR MIN TEMP:  50; 6HR MAX TEMP:  56;

$$

ARZ036-221300-
EAST ARKANSAS

CITY           SKY/WX    TMP DP  RH WIND       PRES   REMARKS
WEST MEMPHIS   MOCLDY    53  53 100 CALM      29.39F
6HR MIN TEMP:  53; 6HR MAX TEMP:  60; 6HR PCP:  0.40;

$$

ARZ050-053-066-070-073-221300-
SOUTHWEST ARKANSAS

CITY           SKY/WX    TMP DP  RH WIND       PRES   REMARKS
ARKADELPHIA    CLOUDY    52  52 100 CALM      29.37F
6HR MIN TEMP:  51; 6HR MAX TEMP:  54;

CAMDEN         CLOUDY    54  50  87 SE3       29.38F
TEXARKANA      CLOUDY    53  49  86 SW7       29.37S
6HR MIN TEMP:  53; 6HR MAX TEMP:  57;

EL DORADO        N/A    N/A N/A N/A MISG      29.39F
DE QUEEN       FOG       48  48 100 NE5       29.34F VSB 1/2
6HR MIN TEMP:  48; 6HR MAX TEMP:  52; 6HR PCP: TRACE;

$$

ARZ056-057-069-221300-
SOUTHEAST ARKANSAS

CITY           SKY/WX    TMP DP  RH WIND       PRES   REMARKS
PINE BLUFF     LGT RAIN  54  53  97 SE7       29.41F
6HR MIN TEMP:  51; 6HR MAX TEMP:  57; 6HR PCP:  0.02;

STUTTGART      MOCLDY    54  48  82 S3        29.42R
6HR MIN TEMP:  54; 6HR MAX TEMP:  57; 6HR PCP:  0.01;

MONTICELLO     CLOUDY    56  54  93 S5        29.41F
6HR MIN TEMP:  49; 6HR MAX TEMP:  56; 6HR PCP:  0.01;


$$





USA.gov is the U.S. government's official web portal to all federal, state and local government web resources and services.